Tracking 28790 objects as of 19-Apr-2024
HD Live streaming from Space Station
objects crossing your sky now

CZ-4 DEB

Track CZ-4 DEB now!
10-day predictions


NORAD ID: 26351
Int'l Code: 1999-057JL
Perigee: 693.2 km
Apogee: 775.2 km
Inclination: 98.6 °
Period: 99.3 minutes
Semi major axis: 7105 km
RCS: 0.0689 m2 (small)
Launch date: October 14, 1999
Source: People's Republic of China (PRC)
Launch site: Taiyaun Space Center, China (TSC)

Note: This is SATELLITE DEBRIS
Your satellite tracking list
Your tracking list is empty




NASA's NSSDC Master Catalog

Two Line Element Set (TLE):
1 26351U 99057JL  24109.89379016  .00004217  00000-0  10880-2 0  9999
2 26351  98.6303 103.5309 0057731 267.3894  92.0689 14.49567442269963
Source of the keplerian elements: AFSPC